When you browse on this site, cookies collect data to enhance your experience and personalize the content and advertising you see.
Visit our Privacy Policy to learn more. By continuing to use the site, you agree to this use of cookies and data.
  • In Switzerland
  • List of Countries
  • For 7 days
  • Water Temperature
  • Weather Map
  • Weather Widgets
  • user-avatar
    Login

    Hourly Weather Kitzbuhel

    Today, 20 October, Sunday

    Time Temperature Precipitation Wind Pressure Humidity
    00:00 +10°C° 0 mm 3 mps 675 mmHg 84%
    01:00 +10°C° 0 mm 4 mps 675 mmHg 84%
    02:00 +10°C° 0 mm 4 mps 674 mmHg 84%
    03:00 +10°C° 0 mm 3 mps 674 mmHg 84%
    04:00 +10°C° 0 mm 3 mps 674 mmHg 83%
    05:00 +10°C° 0 mm 3 mps 674 mmHg 84%
    06:00 +10°C° 0 mm 3 mps 675 mmHg 84%
    07:00 +10°C° 0 mm 4 mps 675 mmHg 84%
    08:00 +12°C° 0 mm 3 mps 675 mmHg 77%
    09:00 +14°C° 0 mm 3 mps 676 mmHg 70%
    10:00 +18°C° 0 mm 3 mps 676 mmHg 63%
    11:00 +18°C° 0 mm 3 mps 676 mmHg 59%
    12:00 +19°C° 0 mm 3 mps 677 mmHg 56%
    13:00 +20°C° 0 mm 3 mps 677 mmHg 52%
    14:00 +19°C° 0 mm 3 mps 676 mmHg 58%
    15:00 +18°C° 0 mm 3 mps 676 mmHg 63%
    16:00 +17°C° 0 mm 3 mps 675 mmHg 68%
    17:00 +14°C° 0 mm 3 mps 675 mmHg 71%
    18:00 +13°C° 0 mm 3 mps 675 mmHg 73%
    19:00 +12°C° 0 mm 4 mps 675 mmHg 75%
    20:00 +12°C° 0 mm 4 mps 676 mmHg 75%
    21:00 +12°C° 0 mm 4 mps 676 mmHg 75%
    22:00 +11°C° 0 mm 4 mps 677 mmHg 75%
    23:00 +12°C° 0 mm 4 mps 677 mmHg 74%

    Tomorrow, 21 October, Monday

    Time Temperature Precipitation Wind Pressure Humidity
    00:00 +12°C° 0 mm 4 mps 677 mmHg 72%
    01:00 +12°C° 0 mm 3 mps 677 mmHg 71%
    02:00 +12°C° 0 mm 3 mps 677 mmHg 70%
    03:00 +12°C° 0 mm 3 mps 677 mmHg 69%
    04:00 +12°C° 0 mm 3 mps 677 mmHg 68%
    05:00 +12°C° 0 mm 3 mps 677 mmHg 68%
    06:00 +13°C° 0 mm 3 mps 678 mmHg 68%
    07:00 +13°C° 0 mm 3 mps 678 mmHg 68%
    08:00 +15°C° 0 mm 2 mps 679 mmHg 65%
    09:00 +17°C° 0 mm 2 mps 680 mmHg 62%
    10:00 +20°C° 0 mm 1 mps 680 mmHg 59%
    11:00 +20°C° 0 mm 2 mps 681 mmHg 58%
    12:00 +20°C° 0 mm 2 mps 681 mmHg 57%
    13:00 +21°C° 0 mm 2 mps 681 mmHg 56%
    14:00 +20°C° 0 mm 1 mps 681 mmHg 64%
    15:00 +19°C° 0 mm 1 mps 681 mmHg 71%
    16:00 +18°C° 0 mm 1 mps 680 mmHg 79%
    17:00 +15°C° 0 mm 1 mps 680 mmHg 83%
    18:00 +14°C° 0 mm 1 mps 680 mmHg 88%
    19:00 +12°C° 0 mm 1 mps 680 mmHg 92%
    20:00 +12°C° 0 mm 1 mps 681 mmHg 92%
    21:00 +12°C° 0 mm 1 mps 681 mmHg 91%
    22:00 +12°C° 0 mm 1 mps 681 mmHg 90%
    23:00 +12°C° 0 mm 1 mps 681 mmHg 90%

    Day after tomorrow, 22 October, Tuesday

    Time Temperature Precipitation Wind Pressure Humidity
    00:00 +11°C° 0 mm 1 mps 681 mmHg 90%
    01:00 +11°C° 0 mm 1 mps 681 mmHg 89%
    02:00 +11°C° 0 mm 1 mps 681 mmHg 91%
    03:00 +10°C° 0 mm 0 mps 681 mmHg 92%
    04:00 +10°C° 0 mm 0 mps 681 mmHg 94%
    05:00 +10°C° 0 mm 0 mps 681 mmHg 93%
    06:00 +10°C° 0 mm 0 mps 681 mmHg 92%
    07:00 +10°C° 0 mm 0 mps 681 mmHg 91%
    08:00 +12°C° 0 mm 0 mps 682 mmHg 84%
    09:00 +13°C° 0 mm 0 mps 682 mmHg 78%
    10:00 +15°C° 0 mm 0 mps 682 mmHg 71%
    11:00 +16°C° 0 mm 0 mps 682 mmHg 67%
    12:00 +19°C° 0 mm 1 mps 682 mmHg 64%
    13:00 +20°C° 0 mm 1 mps 682 mmHg 60%
    14:00 +19°C° 0 mm 1 mps 682 mmHg 67%
    15:00 +18°C° 0 mm 1 mps 682 mmHg 73%
    16:00 +16°C° 0 mm 1 mps 681 mmHg 79%
    17:00 +15°C° 0 mm 1 mps 681 mmHg 82%
    18:00 +14°C° 0 mm 1 mps 681 mmHg 85%
    19:00 +13°C° 0 mm 1 mps 681 mmHg 88%
    20:00 +12°C° 0 mm 1 mps 681 mmHg 86%
    21:00 +12°C° 0 mm 2 mps 680 mmHg 84%
    22:00 +10°C° 0 mm 2 mps 680 mmHg 82%
    23:00 +10°C° 0 mm 2 mps 680 mmHg 78%

    23 October, Wednesday

    Time Temperature Precipitation Wind Pressure Humidity
    00:00 +10°C° 0 mm 2 mps 680 mmHg 75%
    01:00 +10°C° 0 mm 2 mps 679 mmHg 71%
    02:00 +10°C° 0 mm 2 mps 679 mmHg 68%
    03:00 +10°C° 0 mm 2 mps 679 mmHg 65%
    04:00 +10°C° 0 mm 2 mps 679 mmHg 62%
    05:00 +10°C° 0 mm 2 mps 678 mmHg 60%
    06:00 +10°C° 0 mm 2 mps 678 mmHg 57%
    07:00 +9°C° 0 mm 2 mps 678 mmHg 55%
    08:00 +13°C° 0 mm 2 mps 678 mmHg 51%
    09:00 +16°C° 0 mm 2 mps 679 mmHg 47%
    10:00 +19°C° 0 mm 2 mps 679 mmHg 44%
    11:00 +20°C° 0 mm 2 mps 679 mmHg 42%
    12:00 +21°C° 0 mm 2 mps 679 mmHg 40%
    13:00 +23°C° 0 mm 2 mps 679 mmHg 39%
    14:00 +21°C° 0 mm 2 mps 678 mmHg 46%
    15:00 +19°C° 0 mm 2 mps 678 mmHg 53%
    16:00 +18°C° 0 mm 2 mps 677 mmHg 61%
    17:00 +16°C° 0 mm 2 mps 677 mmHg 62%
    18:00 +14°C° 0 mm 3 mps 676 mmHg 63%
    19:00 +12°C° 0 mm 3 mps 676 mmHg 64%
    20:00 +11°C° 0 mm 3 mps 676 mmHg 63%
    21:00 +11°C° 0 mm 3 mps 676 mmHg 61%
    22:00 +11°C° 0 mm 3 mps 676 mmHg 59%
    23:00 +11°C° 0 mm 3 mps 675 mmHg 57%

    24 October, Thursday

    Time Temperature Precipitation Wind Pressure Humidity
    00:00 +10°C° 0 mm 3 mps 675 mmHg 55%
    01:00 +10°C° 0 mm 3 mps 675 mmHg 52%
    02:00 +10°C° 0 mm 3 mps 675 mmHg 51%
    03:00 +10°C° 0 mm 3 mps 675 mmHg 50%
    04:00 +10°C° 0 mm 3 mps 675 mmHg 49%
    05:00 +10°C° 0 mm 3 mps 675 mmHg 49%
    06:00 +10°C° 0 mm 3 mps 675 mmHg 49%
    07:00 +10°C° 0 mm 2 mps 675 mmHg 49%
    08:00 +14°C° 0 mm 2 mps 675 mmHg 47%
    09:00 +16°C° 0 mm 1 mps 676 mmHg 45%
    10:00 +19°C° 0 mm 1 mps 676 mmHg 44%
    11:00 +20°C° 0 mm 1 mps 676 mmHg 43%
    12:00 +21°C° 0 mm 1 mps 676 mmHg 42%
    13:00 +21°C° 0 mm 1 mps 676 mmHg 41%
    14:00 +20°C° 0 mm 1 mps 676 mmHg 50%
    15:00 +19°C° 0 mm 1 mps 675 mmHg 58%
    16:00 +18°C° 0 mm 1 mps 675 mmHg 66%
    17:00 +15°C° 0 mm 1 mps 675 mmHg 70%
    18:00 +13°C° 0 mm 1 mps 675 mmHg 73%
    19:00 +12°C° 0 mm 1 mps 675 mmHg 77%
    20:00 +11°C° 0 mm 1 mps 675 mmHg 78%
    21:00 +11°C° 0 mm 1 mps 675 mmHg 79%
    22:00 +11°C° 0 mm 1 mps 676 mmHg 80%
    23:00 +11°C° 0 mm 1 mps 675 mmHg 81%

    25 October, Friday

    Time Temperature Precipitation Wind Pressure Humidity
    00:00 +10°C° 0 mm 1 mps 675 mmHg 82%
    01:00 +9°C° 0 mm 0 mps 675 mmHg 83%
    02:00 +9°C° 0 mm 0 mps 675 mmHg 84%
    03:00 +8°C° 0 mm 0 mps 675 mmHg 86%
    04:00 +8°C° 0 mm 0 mps 675 mmHg 87%
    05:00 +8°C° 0 mm 0 mps 675 mmHg 88%
    06:00 +8°C° 0 mm 0 mps 676 mmHg 89%
    07:00 +8°C° 0 mm 0 mps 676 mmHg 89%
    08:00 +10°C° 0 mm 0 mps 676 mmHg 83%
    09:00 +12°C° 0 mm 0 mps 677 mmHg 77%
    10:00 +13°C° 0 mm 0 mps 678 mmHg 71%
    11:00 +15°C° 0 mm 1 mps 678 mmHg 69%
    12:00 +16°C° 0 mm 1 mps 678 mmHg 68%
    13:00 +18°C° 0 mm 1 mps 678 mmHg 67%
    14:00 +16°C° 0 mm 1 mps 678 mmHg 72%
    15:00 +15°C° 0 mm 1 mps 677 mmHg 77%
    16:00 +15°C° 0 mm 1 mps 677 mmHg 82%
    17:00 +13°C° 0 mm 1 mps 677 mmHg 85%
    18:00 +12°C° 0 mm 1 mps 677 mmHg 88%
    19:00 +10°C° 0 mm 1 mps 677 mmHg 92%
    20:00 +10°C° 0 mm 1 mps 677 mmHg 91%
    21:00 +10°C° 0 mm 1 mps 677 mmHg 90%
    22:00 +10°C° 0 mm 1 mps 677 mmHg 89%
    23:00 +10°C° 0 mm 1 mps 677 mmHg 87%
    Show more